This is the latest recevied weather packets stored in our database for station/object KM7BEO. If no packets are shown the sender has not sent any weather packets the latest 10 day(s).
| Time | Temp. | Humidity | Pressure | Rain* | Wind** | Luminosity | Snow |
|---|---|---|---|---|---|---|---|
| 1778169205 | 11.67° C | 78% | 1020.2 hPa | 0 mm | - | 190 W/m² | - |
| 1778168902 | 11.67° C | 76% | 1020.2 hPa | 0 mm | - | 173 W/m² | - |
| 1778168599 | 11.67° C | 76% | 1020.4 hPa | 0 mm | - | 161 W/m² | - |
| 1778168296 | 11.67° C | 77% | 1020.3 hPa | 0 mm | - | 174 W/m² | - |
| 1778167992 | 11.67° C | 78% | 1020.4 hPa | 0 mm | - | 191 W/m² | - |
| 1778167689 | 11.67° C | 78% | 1020.5 hPa | 0 mm | - | 163 W/m² | - |
| 1778167385 | 11.11° C | 80% | 1020.2 hPa | 0 mm | - | 152 W/m² | - |
| 1778167081 | 11.11° C | 80% | 1020.3 hPa | 0 mm | - | 89 W/m² | - |
| 1778166778 | 11.11° C | 80% | 1020.4 hPa | 0 mm | - | 79 W/m² | - |
| 1778166475 | 10.56° C | 81% | 1020.3 hPa | 0 mm | - | 102 W/m² | - |
| 1778166171 | 10.56° C | 81% | 1020.2 hPa | 0 mm | - | 100 W/m² | - |
| 1778165868 | 10.56° C | 81% | 1020.2 hPa | 0 mm | - | 101 W/m² | - |
| 1778165564 | 10.56° C | 81% | 1020.3 hPa | 0 mm | - | 99 W/m² | - |
| 1778165261 | 10° C | 81% | 1020.5 hPa | 0 mm | - | 83 W/m² | - |
| 1778164959 | 10.56° C | 82% | 1020.4 hPa | 0 mm | - | 75 W/m² | - |
| 1778164655 | 10.56° C | 82% | 1020.3 hPa | 0 mm | - | 65 W/m² | - |
| 1778164353 | 10.56° C | 82% | 1020.2 hPa | 0 mm | - | 65 W/m² | - |
| 1778164048 | 10° C | 82% | 1020.2 hPa | 0 mm | - | 68 W/m² | - |
| 1778163745 | 10° C | 83% | 1020.3 hPa | 0 mm | - | 59 W/m² | - |
| 1778163441 | 10° C | 84% | 1020.1 hPa | 0 mm | - | 74 W/m² | - |
| 1778163139 | 10° C | 85% | 1020.2 hPa | 0 mm | - | 62 W/m² | - |
| 1778162834 | 10° C | 86% | 1020.2 hPa | 0 mm | - | 62 W/m² | - |
| 1778162532 | 10° C | 86% | 1020.1 hPa | 0 mm | - | 54 W/m² | - |
| 1778162229 | 10° C | 87% | 1019.9 hPa | 0 mm | - | 45 W/m² | - |
| 1778161927 | 10° C | 86% | 1019.9 hPa | 0 mm | - | 50 W/m² | - |
* Rain latest hour (hover to see other rain measurements)
** Current wind speed in m/s (hover to see current wind gust speed)